| time (UTC) | temp F | wind direction | speed MPH | gust MPH | rain 1hr in | rain 24hr in | rain mn in | humidity % | barometer mb |
| 20260506013729 | 78 | 144 | 3.0 | 8.0 | 0.00 | 0.00 | 0.00 | 1 | 1005.1 |
| 20260506013227 | 78 | 144 | 3.0 | 8.0 | 0.00 | 0.00 | 0.00 | 1 | 1005.0 |
| 20260506012727 | 78 | 199 | 3.0 | 7.0 | 0.00 | 0.00 | 0.00 | 1 | 1005.1 |
| 20260506012225 | 79 | 162 | 3.0 | 11.0 | 0.00 | 0.00 | 0.00 | 1 | 1004.9 |
| 20260506011723 | 79 | 137 | 4.0 | 11.0 | 0.00 | 0.00 | 0.00 | 1 | 1004.9 |
| 20260506011222 | 79 | 163 | 3.0 | 8.0 | 0.00 | 0.00 | 0.00 | 1 | 1005.0 |
| 20260506010723 | 79 | 175 | 3.0 | 7.0 | 0.00 | 0.00 | 0.00 | 1 | 1005.0 |
| 20260506010225 | 80 | 150 | 4.0 | 9.0 | 0.00 | 0.00 | 0.00 | 1 | 1004.9 |
| 20260506010221 | 79 | 162 | 4.0 | 9.0 | 0.00 | 0.00 | 0.00 | 1 | 1004.9 |
| 20260506005221 | 80 | 152 | 3.0 | 10.0 | 0.00 | 0.00 | 0.00 | 3 | 1004.8 |
| 20260506004721 | 80 | 228 | 4.0 | 10.0 | 0.00 | 0.00 | 0.00 | 5 | 1004.8 |
| 20260506004221 | 80 | 142 | 4.0 | 10.0 | 0.00 | 0.00 | 0.00 | 6 | 1004.8 |
| 20260506003719 | 80 | 244 | 5.0 | 13.0 | 0.00 | 0.00 | 0.00 | 9 | 1004.6 |
| 20260506003219 | 81 | 144 | 4.0 | 13.0 | 0.00 | 0.00 | 0.00 | 12 | 1004.5 |
| 20260506002723 | 81 | 186 | 4.0 | 10.0 | 0.00 | 0.00 | 0.00 | 13 | 1004.5 |
| 20260506002719 | 82 | 190 | 4.0 | 10.0 | 0.00 | 0.00 | 0.00 | 15 | 1004.8 |
| 20260506001717 | 82 | 150 | 4.0 | 12.0 | 0.00 | 0.00 | 0.00 | 15 | 1004.8 |
| 20260506001221 | 82 | 172 | 5.0 | 13.0 | 0.00 | 0.00 | 0.00 | 17 | 1004.9 |
| 20260506001217 | 82 | 150 | 5.0 | 13.0 | 0.00 | 0.00 | 0.00 | 17 | 1004.8 |
| 20260506000219 | 82 | 140 | 4.0 | 14.0 | 0.00 | 0.00 | 0.00 | 17 | 1004.9 |
| 20260505235715 | 82 | 203 | 5.0 | 14.0 | 0.00 | 0.00 | 0.00 | 19 | 1004.8 |
| 20260505235215 | 82 | 149 | 5.0 | 14.0 | 0.00 | 0.00 | 0.00 | 21 | 1004.8 |
| 20260505234715 | 82 | 139 | 5.0 | 14.0 | 0.00 | 0.00 | 0.00 | 21 | 1004.6 |
| 20260505234215 | 83 | 190 | 4.0 | 12.0 | 0.00 | 0.00 | 0.00 | 22 | 1004.6 |
| 20260505233715 | 83 | 178 | 4.0 | 11.0 | 0.00 | 0.00 | 0.00 | 22 | 1004.6 |
| 20260505233215 | 83 | 181 | 5.0 | 13.0 | 0.00 | 0.00 | 0.00 | 22 | 1004.5 |
| 20260505232713 | 83 | 152 | 5.0 | 13.0 | 0.00 | 0.00 | 0.00 | 23 | 1004.5 |
| 20260505232216 | 83 | 143 | 4.0 | 13.0 | 0.00 | 0.00 | 0.00 | 23 | 1004.6 |
| 20260505232212 | 83 | 200 | 4.0 | 13.0 | 0.00 | 0.00 | 0.00 | 24 | 1004.6 |
| 20260505231211 | 83 | 190 | 4.0 | 13.0 | 0.00 | 0.00 | 0.00 | 24 | 1004.5 |
| 20260505230713 | 83 | 124 | 5.0 | 11.0 | 0.00 | 0.00 | 0.00 | 26 | 1004.3 |
| 20260505230709 | 83 | 198 | 5.0 | 13.0 | 0.00 | 0.00 | 0.00 | 25 | 1004.4 |
| 20260505225713 | 83 | 196 | 5.0 | 16.0 | 0.00 | 0.00 | 0.00 | 26 | 1004.4 |
| 20260505225709 | 83 | 197 | 5.0 | 16.0 | 0.00 | 0.00 | 0.00 | 25 | 1004.4 |
| 20260505225314 | 83 | 211 | 5.0 | 15.0 | 0.00 | 0.00 | 0.00 | 25 | 1004.5 |
| 20260505224207 | 83 | 155 | 5.0 | 15.0 | 0.00 | 0.00 | 0.00 | 25 | 1004.5 |
| 20260505223706 | 83 | 165 | 5.0 | 15.0 | 0.00 | 0.00 | 0.00 | 26 | 1004.6 |
| 20260505223207 | 83 | 128 | 6.0 | 15.0 | 0.00 | 0.00 | 0.00 | 25 | 1004.5 |
| 20260505222707 | 83 | 194 | 6.0 | 19.0 | 0.00 | 0.00 | 0.00 | 25 | 1004.4 |
| 20260505222209 | 84 | 163 | 6.0 | 19.0 | 0.00 | 0.00 | 0.00 | 27 | 1004.4 |
| 20260505222205 | 84 | 213 | 6.0 | 16.0 | 0.00 | 0.00 | 0.00 | 26 | 1004.3 |
| 20260505221205 | 84 | 209 | 5.0 | 16.0 | 0.00 | 0.00 | 0.00 | 26 | 1004.3 |
| 20260505220705 | 84 | 163 | 5.0 | 13.0 | 0.00 | 0.00 | 0.00 | 25 | 1004.3 |
| 20260505220206 | 84 | 146 | 5.0 | 14.0 | 0.00 | 0.00 | 0.00 | 27 | 1004.5 |
| 20260505215705 | 84 | 167 | 4.0 | 14.0 | 0.00 | 0.00 | 0.00 | 28 | 1004.4 |
| 20260505215206 | 84 | 173 | 5.0 | 23.0 | 0.00 | 0.00 | 0.00 | 29 | 1004.4 |
| 20260505214705 | 84 | 153 | 5.0 | 23.0 | 0.00 | 0.00 | 0.00 | 31 | 1004.4 |
| 20260505214203 | 85 | 153 | 5.0 | 12.0 | 0.00 | 0.00 | 0.00 | 28 | 1004.5 |
| 20260505213703 | 84 | 178 | 5.0 | 16.0 | 0.00 | 0.00 | 0.00 | 30 | 1004.6 |
| 20260505213201 | 84 | 171 | 5.0 | 16.0 | 0.00 | 0.00 | 0.00 | 32 | 1004.8 |
| 20260505212659 | 85 | 212 | 5.0 | 14.0 | 0.00 | 0.00 | 0.00 | 32 | 1004.9 |
| 20260505212159 | 85 | 195 | 5.0 | 11.0 | 0.00 | 0.00 | 0.00 | 34 | 1005.0 |
| 20260505211703 | 85 | 192 | 4.0 | 14.0 | 0.00 | 0.00 | 0.00 | 33 | 1005.0 |
| 20260505211659 | 85 | 180 | 5.0 | 14.0 | 0.00 | 0.00 | 0.00 | 34 | 1005.0 |
| 20260505210657 | 85 | 213 | 5.0 | 13.0 | 0.00 | 0.00 | 0.00 | 33 | 1005.1 |
| 20260505210157 | 85 | 196 | 5.0 | 13.0 | 0.00 | 0.00 | 0.00 | 33 | 1005.2 |
| 20260505205658 | 85 | 192 | 5.0 | 11.0 | 0.00 | 0.00 | 0.00 | 33 | 1005.3 |
| 20260505205157 | 85 | 180 | 5.0 | 11.0 | 0.00 | 0.00 | 0.00 | 33 | 1005.4 |
| 20260505204657 | 85 | 182 | 5.0 | 12.0 | 0.00 | 0.00 | 0.00 | 34 | 1005.5 |
| 20260505204201 | 85 | 180 | 5.0 | 12.0 | 0.00 | 0.00 | 0.00 | 33 | 1005.6 |
| 20260505204157 | 85 | 238 | 5.0 | 12.0 | 0.00 | 0.00 | 0.00 | 32 | 1005.6 |
| 20260505203803 | 85 | 201 | 4.0 | 12.0 | 0.00 | 0.00 | 0.00 | 32 | 1005.6 |
| 20260505202657 | 85 | 155 | 4.0 | 15.0 | 0.00 | 0.00 | 0.00 | 30 | 1005.6 |
| 20260505202201 | 84 | 182 | 5.0 | 13.0 | 0.00 | 0.00 | 0.00 | 31 | 1005.5 |
| 20260505202156 | 85 | 210 | 5.0 | 15.0 | 0.00 | 0.00 | 0.00 | 31 | 1005.5 |
| 20260505201154 | 84 | 121 | 6.0 | 16.0 | 0.00 | 0.00 | 0.00 | 31 | 1005.5 |
| 20260505200655 | 84 | 207 | 6.0 | 16.0 | 0.00 | 0.00 | 0.00 | 30 | 1005.6 |
| 20260505200155 | 84 | 153 | 7.0 | 16.0 | 0.00 | 0.00 | 0.00 | 30 | 1005.6 |
| 20260505195654 | 84 | 194 | 6.0 | 16.0 | 0.00 | 0.00 | 0.00 | 30 | 1005.6 |
| 20260505195155 | 84 | 163 | 5.0 | 15.0 | 0.00 | 0.00 | 0.00 | 29 | 1005.8 |
| 20260505194654 | 84 | 171 | 6.0 | 15.0 | 0.00 | 0.00 | 0.00 | 30 | 1005.8 |
| 20260505194153 | 84 | 159 | 6.0 | 17.0 | 0.00 | 0.00 | 0.00 | 29 | 1005.7 |
| 20260505193653 | 84 | 194 | 6.0 | 17.0 | 0.00 | 0.00 | 0.00 | 28 | 1005.8 |
| 20260505193158 | 83 | 196 | 5.0 | 14.0 | 0.00 | 0.00 | 0.00 | 26 | 1005.9 |
| 20260505193153 | 83 | 160 | 6.0 | 14.0 | 0.00 | 0.00 | 0.00 | 28 | 1005.8 |
| 20260505192758 | 83 | 136 | 6.0 | 19.0 | 0.00 | 0.00 | 0.00 | 28 | 1005.8 |
| 20260505191651 | 83 | 157 | 6.0 | 19.0 | 0.00 | 0.00 | 0.00 | 27 | 1005.9 |
| 20260505191151 | 83 | 148 | 6.0 | 19.0 | 0.00 | 0.00 | 0.00 | 27 | 1005.9 |
| 20260505190650 | 83 | 237 | 7.0 | 19.0 | 0.00 | 0.00 | 0.00 | 26 | 1005.9 |
| 20260505190150 | 83 | 163 | 7.0 | 16.0 | 0.00 | 0.00 | 0.00 | 27 | 1005.9 |
| 20260505185651 | 83 | 209 | 6.0 | 16.0 | 0.00 | 0.00 | 0.00 | 27 | 1006.0 |
| 20260505185154 | 83 | 137 | 7.0 | 17.0 | 0.00 | 0.00 | 0.00 | 27 | 1006.1 |
| 20260505185150 | 83 | 189 | 7.0 | 17.0 | 0.00 | 0.00 | 0.00 | 23 | 1005.9 |
| 20260505184149 | 83 | 184 | 6.0 | 13.0 | 0.00 | 0.00 | 0.00 | 24 | 1006.2 |
| 20260505183649 | 83 | 186 | 6.0 | 14.0 | 0.00 | 0.00 | 0.00 | 25 | 1006.2 |
| 20260505183153 | 83 | 190 | 5.0 | 13.0 | 0.00 | 0.00 | 0.00 | 22 | 1006.4 |
| 20260505183148 | 83 | 105 | 6.0 | 14.0 | 0.00 | 0.00 | 0.00 | 26 | 1006.2 |
| 20260505182153 | 82 | 175 | 5.0 | 16.0 | 0.00 | 0.00 | 0.00 | 22 | 1006.6 |
| 20260505182149 | 83 | 211 | 5.0 | 16.0 | 0.00 | 0.00 | 0.00 | 23 | 1006.5 |
| 20260505181148 | 82 | 205 | 6.0 | 14.0 | 0.00 | 0.00 | 0.00 | 23 | 1006.6 |
| 20260505180648 | 82 | 166 | 5.0 | 14.0 | 0.00 | 0.00 | 0.00 | 22 | 1006.7 |
| 20260505180148 | 82 | 194 | 5.0 | 14.0 | 0.00 | 0.00 | 0.00 | 21 | 1006.9 |
| 20260505175649 | 81 | 148 | 6.0 | 14.0 | 0.00 | 0.00 | 0.00 | 20 | 1006.8 |
| 20260505175153 | 81 | 159 | 5.0 | 18.0 | 0.00 | 0.00 | 0.00 | 20 | 1006.9 |
| 20260505175149 | 81 | 161 | 6.0 | 12.0 | 0.00 | 0.00 | 0.00 | 19 | 1006.8 |
| 20260505174148 | 81 | 130 | 5.0 | 18.0 | 0.00 | 0.00 | 0.00 | 17 | 1007.0 |
| 20260505173644 | 81 | 178 | 5.0 | 12.0 | 0.00 | 0.00 | 0.00 | 18 | 1007.1 |
| 20260505173142 | 80 | 215 | 6.0 | 13.0 | 0.00 | 0.00 | 0.00 | 14 | 1007.1 |
| 20260505172641 | 80 | 244 | 6.0 | 13.0 | 0.00 | 0.00 | 0.00 | 14 | 1007.2 |
| 20260505172140 | 79 | 209 | 5.0 | 23.0 | 0.00 | 0.00 | 0.00 | 13 | 1007.3 |
| 20260505171639 | 79 | 165 | 4.0 | 23.0 | 0.00 | 0.00 | 0.00 | 9 | 1007.2 |
| 20260505171138 | 79 | 232 | 5.0 | 14.0 | 0.00 | 0.00 | 0.00 | 11 | 1007.3 |
| 20260505170641 | 79 | 178 | 5.0 | 14.0 | 0.00 | 0.00 | 0.00 | 11 | 1007.2 |
| 20260505170637 | 79 | 173 | 4.0 | 18.0 | 0.00 | 0.00 | 0.00 | 9 | 1007.2 |
| 20260505165636 | 78 | 205 | 5.0 | 18.0 | 0.00 | 0.00 | 0.00 | 5 | 1007.1 |
| 20260505165136 | 78 | 175 | 5.0 | 18.0 | 0.00 | 0.00 | 0.00 | 4 | 1007.1 |
| 20260505164637 | 78 | 227 | 5.0 | 13.0 | 0.00 | 0.00 | 0.00 | 9 | 1007.0 |
| 20260505164141 | 78 | 197 | 4.0 | 15.0 | 0.00 | 0.00 | 0.00 | 5 | 1007.1 |
| 20260505164137 | 78 | 220 | 5.0 | 15.0 | 0.00 | 0.00 | 0.00 | 5 | 1007.1 |
| 20260505163134 | 78 | 161 | 5.0 | 15.0 | 0.00 | 0.00 | 0.00 | 1 | 1007.1 |
| 20260505162633 | 77 | 156 | 6.0 | 17.0 | 0.00 | 0.00 | 0.00 | 1 | 1007.1 |
| 20260505162132 | 77 | 165 | 6.0 | 17.0 | 0.00 | 0.00 | 0.00 | 1 | 1007.2 |
| 20260505161633 | 76 | 178 | 5.0 | 15.0 | 0.00 | 0.00 | 0.00 | 1 | 1007.1 |
| 20260505161132 | 76 | 182 | 5.0 | 17.0 | 0.00 | 0.00 | 0.00 | 1 | 1007.1 |
| 20260505160632 | 76 | 183 | 5.0 | 17.0 | 0.00 | 0.00 | 0.00 | 1 | 1007.1 |
| 20260505160132 | 76 | 253 | 6.0 | 15.0 | 0.00 | 0.00 | 0.00 | 1 | 1007.1 |
| 20260505153130 | 74 | 196 | 5.0 | 16.0 | 0.00 | 0.00 | 0.00 | 1 | 1007.2 |
| 20260505152628 | 74 | 239 | 4.0 | 12.0 | 0.00 | 0.00 | 0.00 | 1 | 1007.3 |
| 20260505152128 | 74 | 182 | 4.0 | 13.0 | 0.00 | 0.00 | 0.00 | 1 | 1007.3 |
| 20260505151630 | 74 | 193 | 5.0 | 14.0 | 0.00 | 0.00 | 0.00 | 1 | 1007.4 |
| 20260505151626 | 74 | 190 | 5.0 | 14.0 | 0.00 | 0.00 | 0.00 | 1 | 1007.3 |
| 20260505150627 | 74 | 197 | 5.0 | 12.0 | 0.00 | 0.00 | 0.00 | 1 | 1007.3 |
| 20260505150126 | 74 | 161 | 4.0 | 12.0 | 0.00 | 0.00 | 0.00 | 1 | 1007.3 |
| 20260505140622 | 73 | 149 | 5.0 | 15.0 | 0.00 | 0.00 | 0.00 | 1 | 1006.8 |
| 20260505140122 | 73 | 190 | 5.0 | 15.0 | 0.00 | 0.00 | 0.00 | 1 | 1006.8 |
| 20260505130122 | 71 | 167 | 5.0 | 12.0 | 0.00 | 0.00 | 0.00 | 1 | 1006.5 |
| 20260505124622 | 71 | 157 | 5.0 | 11.0 | 0.00 | 0.00 | 0.00 | 1 | 1006.2 |
| 20260505124122 | 71 | 165 | 4.0 | 10.0 | 0.00 | 0.00 | 0.00 | 1 | 1006.2 |
| 20260505123621 | 71 | 180 | 4.0 | 10.0 | 0.00 | 0.00 | 0.00 | 1 | 1006.1 |
| 20260505123121 | 71 | 177 | 4.0 | 9.0 | 0.00 | 0.00 | 0.00 | 1 | 1006.1 |
| 20260505122623 | 71 | 144 | 4.0 | 9.0 | 0.00 | 0.00 | 0.00 | 1 | 1006.0 |
| 20260505122619 | 71 | 175 | 4.0 | 9.0 | 0.00 | 0.00 | 0.00 | 1 | 1006.1 |
| 20260505121620 | 71 | 181 | 4.0 | 11.0 | 0.00 | 0.00 | 0.00 | 1 | 1005.9 |
| 20260505121125 | 71 | 163 | 4.0 | 10.0 | 0.00 | 0.00 | 0.00 | 1 | 1005.8 |
| 20260505121121 | 71 | 209 | 4.0 | 11.0 | 0.00 | 0.00 | 0.00 | 1 | 1005.8 |
| 20260505120119 | 71 | 178 | 4.0 | 10.0 | 0.00 | 0.00 | 0.00 | 1 | 1005.8 |
| 20260505115619 | 71 | 144 | 4.0 | 9.0 | 0.00 | 0.00 | 0.00 | 1 | 1005.6 |
| 20260505115117 | 71 | 207 | 4.0 | 9.0 | 0.00 | 0.00 | 0.00 | 1 | 1005.6 |
| 20260505114618 | 72 | 219 | 4.0 | 9.0 | 0.00 | 0.00 | 0.00 | 1 | 1005.7 |
| 20260505114120 | 72 | 186 | 4.0 | 11.0 | 0.00 | 0.00 | 0.00 | 1 | 1005.4 |
| 20260505114116 | 72 | 163 | 3.0 | 9.0 | 0.00 | 0.00 | 0.00 | 1 | 1005.6 |
| 20260505113116 | 71 | 161 | 4.0 | 11.0 | 0.00 | 0.00 | 0.00 | 1 | 1005.5 |
| 20260505112615 | 71 | 178 | 4.0 | 14.0 | 0.00 | 0.00 | 0.00 | 1 | 1005.5 |
| 20260505112115 | 71 | 196 | 5.0 | 14.0 | 0.00 | 0.00 | 0.00 | 1 | 1005.3 |
| 20260505111613 | 71 | 227 | 4.0 | 10.0 | 0.00 | 0.00 | 0.00 | 1 | 1005.2 |
| 20260505111116 | 71 | 171 | 5.0 | 12.0 | 0.00 | 0.00 | 0.00 | 1 | 1005.5 |
| 20260505111112 | 71 | 209 | 5.0 | 12.0 | 0.00 | 0.00 | 0.00 | 1 | 1005.5 |
| 20260505110112 | 71 | 199 | 5.0 | 15.0 | 0.00 | 0.00 | 0.00 | 1 | 1005.5 |
| 20260505102105 | 71 | 189 | 4.0 | 11.0 | 0.00 | 0.00 | 0.00 | 1 | 1005.6 |
| 20260505101604 | 71 | 157 | 5.0 | 13.0 | 0.00 | 0.00 | 0.00 | 1 | 1005.6 |
| 20260505101102 | 71 | 167 | 5.0 | 14.0 | 0.00 | 0.00 | 0.00 | 1 | 1005.6 |
| 20260505100602 | 71 | 161 | 5.0 | 14.0 | 0.00 | 0.00 | 0.00 | 1 | 1005.7 |
| 20260505100101 | 71 | 152 | 6.0 | 16.0 | 0.00 | 0.00 | 0.00 | 1 | 1005.7 |
| 20260505095559 | 71 | 159 | 6.0 | 16.0 | 0.00 | 0.00 | 0.00 | 1 | 1005.6 |
| 20260505095059 | 71 | 221 | 7.0 | 16.0 | 0.00 | 0.00 | 0.00 | 1 | 1005.5 |
| 20260505094558 | 71 | 206 | 7.0 | 16.0 | 0.00 | 0.00 | 0.00 | 1 | 1005.5 |
| 20260505094057 | 71 | 167 | 6.0 | 14.0 | 0.00 | 0.00 | 0.00 | 1 | 1005.6 |
| 20260505093601 | 71 | 156 | 6.0 | 16.0 | 0.00 | 0.00 | 0.00 | 1 | 1005.7 |
| 20260505093557 | 71 | 182 | 6.0 | 16.0 | 0.00 | 0.00 | 0.00 | 1 | 1005.7 |
| 20260505092557 | 71 | 144 | 6.0 | 16.0 | 0.00 | 0.00 | 0.00 | 1 | 1005.6 |
| 20260505092056 | 71 | 191 | 5.0 | 16.0 | 0.00 | 0.00 | 0.00 | 1 | 1005.7 |
| 20260505091555 | 71 | 178 | 4.0 | 11.0 | 0.00 | 0.00 | 0.00 | 1 | 1005.7 |
| 20260505091054 | 71 | 169 | 5.0 | 12.0 | 0.00 | 0.00 | 0.00 | 1 | 1005.7 |
| 20260505090555 | 71 | 204 | 6.0 | 13.0 | 0.00 | 0.00 | 0.00 | 1 | 1005.7 |
| 20260505090055 | 71 | 210 | 6.0 | 13.0 | 0.00 | 0.00 | 0.00 | 1 | 1005.7 |
| 20260505085555 | 71 | 196 | 5.0 | 13.0 | 0.00 | 0.00 | 0.00 | 1 | 1005.7 |
| 20260505085055 | 71 | 187 | 5.0 | 13.0 | 0.00 | 0.00 | 0.00 | 1 | 1005.8 |
| 20260505084554 | 71 | 186 | 6.0 | 15.0 | 0.00 | 0.00 | 0.00 | 1 | 1005.8 |
| 20260505084055 | 70 | 227 | 6.0 | 15.0 | 0.00 | 0.00 | 0.00 | 1 | 1005.7 |
| 20260505083555 | 70 | 218 | 6.0 | 15.0 | 0.00 | 0.00 | 0.00 | 1 | 1005.7 |
| 20260505083055 | 70 | 197 | 6.0 | 15.0 | 0.00 | 0.00 | 0.00 | 1 | 1005.8 |
| 20260505082555 | 70 | 168 | 6.0 | 15.0 | 0.00 | 0.00 | 0.00 | 1 | 1005.8 |
| 20260505082055 | 70 | 171 | 6.0 | 15.0 | 0.00 | 0.00 | 0.00 | 1 | 1005.8 |
| 20260505081556 | 70 | 177 | 6.0 | 15.0 | 0.00 | 0.00 | 0.00 | 1 | 1005.9 |
| 20260505081055 | 71 | 232 | 6.0 | 16.0 | 0.00 | 0.00 | 0.00 | 1 | 1006.1 |
| 20260505080555 | 71 | 240 | 6.0 | 16.0 | 0.00 | 0.00 | 0.00 | 1 | 1006.2 |
| 20260505080055 | 71 | 161 | 5.0 | 13.0 | 0.00 | 0.00 | 0.00 | 1 | 1006.3 |
| 20260505075555 | 71 | 195 | 5.0 | 14.0 | 0.00 | 0.00 | 0.00 | 1 | 1006.4 |
| 20260505075053 | 71 | 173 | 5.0 | 14.0 | 0.00 | 0.00 | 0.00 | 1 | 1006.5 |
| 20260505074553 | 71 | 187 | 6.0 | 15.0 | 0.00 | 0.00 | 0.00 | 1 | 1006.7 |
| 20260505074053 | 71 | 203 | 6.0 | 15.0 | 0.00 | 0.00 | 0.00 | 1 | 1006.7 |
| 20260505073553 | 71 | 194 | 6.0 | 16.0 | 0.00 | 0.00 | 0.00 | 1 | 1006.9 |
| 20260505073053 | 71 | 137 | 5.0 | 16.0 | 0.00 | 0.00 | 0.00 | 1 | 1007.0 |
| 20260505072557 | 71 | 177 | 5.0 | 13.0 | 0.00 | 0.00 | 0.00 | 1 | 1007.0 |
| 20260505072553 | 71 | 150 | 5.0 | 13.0 | 0.00 | 0.00 | 0.00 | 1 | 1006.9 |
| 20260505071553 | 71 | 159 | 5.0 | 12.0 | 0.00 | 0.00 | 0.00 | 1 | 1007.1 |
| 20260505071053 | 71 | 183 | 4.0 | 12.0 | 0.00 | 0.00 | 0.00 | 1 | 1007.2 |
| 20260505070557 | 71 | 165 | 5.0 | 12.0 | 0.00 | 0.00 | 0.00 | 1 | 1007.2 |
| 20260505070552 | 71 | 161 | 5.0 | 12.0 | 0.00 | 0.00 | 0.00 | 1 | 1007.2 |
| 20260505065555 | 71 | 194 | 5.0 | 14.0 | 0.00 | 0.00 | 0.00 | 1 | 1007.3 |
| 20260505065551 | 71 | 198 | 5.0 | 14.0 | 0.00 | 0.00 | 0.00 | 1 | 1007.4 |
| 20260505064551 | 71 | 151 | 5.0 | 12.0 | 0.00 | 0.00 | 0.00 | 1 | 1007.3 |
| 20260505064050 | 71 | 157 | 5.0 | 15.0 | 0.00 | 0.00 | 0.00 | 1 | 1007.3 |
| 20260505063551 | 71 | 155 | 5.0 | 15.0 | 0.00 | 0.00 | 0.00 | 1 | 1007.4 |
| 20260505063051 | 71 | 187 | 6.0 | 16.0 | 0.00 | 0.00 | 0.00 | 1 | 1007.4 |
| 20260505062551 | 71 | 157 | 5.0 | 16.0 | 0.00 | 0.00 | 0.00 | 1 | 1007.6 |
| 20260505062051 | 71 | 164 | 5.0 | 12.0 | 0.00 | 0.00 | 0.00 | 1 | 1007.6 |
| 20260505061551 | 71 | 242 | 4.0 | 12.0 | 0.00 | 0.00 | 0.00 | 1 | 1007.7 |
| 20260505061051 | 71 | 171 | 5.0 | 11.0 | 0.00 | 0.00 | 0.00 | 1 | 1007.7 |
| 20260505060551 | 71 | 174 | 5.0 | 14.0 | 0.00 | 0.00 | 0.00 | 1 | 1007.6 |
| 20260505060055 | 71 | 220 | 5.0 | 12.0 | 0.00 | 0.00 | 0.00 | 1 | 1007.8 |
| 20260505060050 | 71 | 200 | 5.0 | 14.0 | 0.00 | 0.00 | 0.00 | 1 | 1007.6 |
| 20260505055653 | 71 | 222 | 5.0 | 12.0 | 0.00 | 0.00 | 0.00 | 1 | 1007.7 |
| 20260505054550 | 71 | 133 | 5.0 | 11.0 | 0.00 | 0.00 | 0.00 | 1 | 1007.8 |
| 20260505054047 | 71 | 207 | 5.0 | 18.0 | 0.00 | 0.00 | 0.00 | 1 | 1007.8 |
| 20260505053546 | 71 | 198 | 4.0 | 18.0 | 0.00 | 0.00 | 0.00 | 1 | 1007.9 |
| 20260505053050 | 71 | 185 | 4.0 | 11.0 | 0.00 | 0.00 | 0.00 | 1 | 1007.8 |
| 20260505053046 | 71 | 238 | 4.0 | 11.0 | 0.00 | 0.00 | 0.00 | 1 | 1007.8 |
| 20260505052651 | 71 | 183 | 4.0 | 11.0 | 0.00 | 0.00 | 0.00 | 1 | 1007.7 |
| 20260505051548 | 71 | 184 | 4.0 | 9.0 | 0.00 | 0.00 | 0.00 | 1 | 1007.8 |
| 20260505051544 | 71 | 203 | 4.0 | 11.0 | 0.00 | 0.00 | 0.00 | 1 | 1007.8 |
| 20260505050542 | 72 | 205 | 4.0 | 11.0 | 0.00 | 0.00 | 0.00 | 1 | 1007.9 |
| 20260505041544 | 73 | 153 | 5.0 | 14.0 | 0.00 | 0.00 | 0.00 | 1 | 1007.8 |
| 20260505041540 | 73 | 178 | 5.0 | 15.0 | 0.00 | 0.00 | 0.00 | 1 | 1007.7 |
| 20260505040645 | 73 | 202 | 5.0 | 14.0 | 0.00 | 0.00 | 0.00 | 3 | 1007.7 |
| 20260505040542 | 73 | 164 | 5.0 | 14.0 | 0.00 | 0.00 | 0.00 | 1 | 1007.6 |
| 20260505040538 | 73 | 164 | 5.0 | 14.0 | 0.00 | 0.00 | 0.00 | 1 | 1007.6 |
| 20260505035038 | 73 | 91 | 5.0 | 13.0 | 0.00 | 0.00 | 0.00 | 6 | 1007.7 |
| 20260505034537 | 73 | 245 | 5.0 | 14.0 | 0.00 | 0.00 | 0.00 | 9 | 1007.7 |
| 20260505034035 | 73 | 158 | 4.0 | 14.0 | 0.00 | 0.00 | 0.00 | 12 | 1007.7 |
| 20260505033536 | 74 | 156 | 4.0 | 10.0 | 0.00 | 0.00 | 0.00 | 14 | 1007.8 |
| 20260505033532 | 74 | 220 | 5.0 | 10.0 | 0.00 | 0.00 | 0.00 | 16 | 1007.7 |
| 20260505032532 | 74 | 167 | 5.0 | 13.0 | 0.00 | 0.00 | 0.00 | 18 | 1007.7 |
| 20260505032031 | 74 | 156 | 5.0 | 13.0 | 0.00 | 0.00 | 0.00 | 19 | 1007.7 |
| 20260505031531 | 74 | 157 | 5.0 | 16.0 | 0.00 | 0.00 | 0.00 | 20 | 1007.8 |
| 20260505031034 | 74 | 185 | 5.0 | 14.0 | 0.00 | 0.00 | 0.00 | 22 | 1007.7 |
| 20260505031030 | 74 | 205 | 6.0 | 16.0 | 0.00 | 0.00 | 0.00 | 21 | 1007.8 |
| 20260505030028 | 74 | 186 | 5.0 | 12.0 | 0.00 | 0.00 | 0.00 | 23 | 1007.6 |
| 20260505025532 | 74 | 190 | 5.0 | 15.0 | 0.00 | 0.00 | 0.00 | 25 | 1007.6 |
| 20260505025528 | 74 | 167 | 6.0 | 15.0 | 0.00 | 0.00 | 0.00 | 24 | 1007.6 |
| 20260505024526 | 75 | 209 | 5.0 | 11.0 | 0.00 | 0.00 | 0.00 | 26 | 1007.6 |
| 20260505024026 | 75 | 159 | 5.0 | 11.0 | 0.00 | 0.00 | 0.00 | 26 | 1007.6 |
| 20260505023526 | 75 | 183 | 4.0 | 10.0 | 0.00 | 0.00 | 0.00 | 27 | 1007.4 |
| 20260505023025 | 75 | 159 | 4.0 | 10.0 | 0.00 | 0.00 | 0.00 | 28 | 1007.4 |
| 20260505022523 | 75 | 208 | 5.0 | 12.0 | 0.00 | 0.00 | 0.00 | 29 | 1007.4 |
| 20260505022024 | 75 | 163 | 4.0 | 12.0 | 0.00 | 0.00 | 0.00 | 29 | 1007.3 |
| 20260505021523 | 75 | 180 | 4.0 | 11.0 | 0.00 | 0.00 | 0.00 | 29 | 1007.2 |
| 20260505021027 | 75 | 161 | 5.0 | 12.0 | 0.00 | 0.00 | 0.00 | 30 | 1007.2 |
| 20260505021022 | 75 | 161 | 5.0 | 11.0 | 0.00 | 0.00 | 0.00 | 30 | 1007.3 |
| 20260505020021 | 75 | 153 | 5.0 | 12.0 | 0.00 | 0.00 | 0.00 | 30 | 1007.2 |
| 20260505015525 | 76 | 163 | 4.0 | 12.0 | 0.00 | 0.00 | 0.00 | 32 | 1007.0 |
| 20260505015521 | 75 | 214 | 5.0 | 12.0 | 0.00 | 0.00 | 0.00 | 31 | 1007.1 |
| 20260505014521 | 76 | 180 | 4.0 | 12.0 | 0.00 | 0.00 | 0.00 | 33 | 1007.0 |